DW2270 Weather Reports


Display with metric or nautical units.
time (UTC)temp
F
wind
direction
speed
MPH
gust
MPH
rain 1hr
in
rain 24hr
in
rain mn
in
humidity
%
barometer
mb
20260901112222 79 177 0.0 0.0 0.00 0.00 0.00 1 1014.5
20260901111244 79 177 0.0 0.0 0.00 0.00 0.00 1 1014.5
20260901105121 79 177 0.0 0.0 0.00 0.00 0.00 1 1014.4
20260901104129 79 177 0.0 0.0 0.00 0.00 0.00 1 1014.4
20260901103144 79 177 0.0 0.0 0.00 0.00 0.00 1 1014.4
20260901095927 79 177 0.0 0.0 0.00 0.00 0.00 1 1014.3
20260901094856 79 177 0.0 0.0 0.00 0.00 0.00 1 1014.2
20260901093829 79 177 0.0 0.0 0.00 0.00 0.00 1 1014.3
20260901091654 80 177 0.0 0.0 0.00 0.00 0.00 1 1014.3
20260901090634 80 0 0.0 0.0 0.00 0.00 0.00 1 1014.4
20260901085608 80 0 0.0 0.0 0.00 0.00 0.00 1 1014.4
20260901084553 80 0 0.0 0.0 0.00 0.00 0.00 1 1014.3
20260901083555 80 0 0.0 0.0 0.00 0.00 0.00 1 1014.4
20260901082543 80 0 0.0 0.0 0.00 0.00 0.00 1 1014.4
20260901080419 81 0 0.0 0.0 0.00 0.00 0.00 1 1014.4
20260901075349 81 0 0.0 0.0 0.00 0.00 0.00 1 1014.5
20260901073226 81 177 0.0 0.0 0.00 0.00 0.00 1 1014.6
20260901072201 82 0 0.0 0.0 0.00 0.00 0.00 1 1014.6
20260901071138 82 0 0.0 0.0 0.00 0.00 0.00 1 1014.5
20260901070131 82 0 0.0 0.0 0.00 0.00 0.00 1 1014.6
20260901065150 82 0 0.0 0.0 0.00 0.00 0.00 1 1014.6
20260901064124 83 0 0.0 0.0 0.00 0.00 0.00 1 1014.7
20260901061937 83 0 0.0 0.0 0.00 0.00 0.00 1 1014.8
20260901060941 83 0 0.0 0.0 0.00 0.00 0.00 1 1014.8
20260901055924 83 177 0.0 0.0 0.00 0.00 0.00 1 1014.8
20260901054859 84 177 0.0 0.0 0.00 0.00 0.00 1 1014.7
20260901053837 84 0 0.0 0.0 0.00 0.00 0.00 1 1014.7
20260901052811 84 177 0.0 0.0 0.00 0.00 0.00 1 1014.7
20260901051832 84 0 0.0 0.0 0.00 0.00 0.00 1 1014.6
20260901050820 84 177 0.0 0.0 0.00 0.00 0.00 1 1014.6
20260901045755 84 177 0.0 0.0 0.00 0.00 0.00 1 1014.5
20260901044745 84 177 0.0 0.0 0.00 0.00 0.00 1 1014.5
20260901043750 84 177 0.0 0.0 0.00 0.00 0.00 1 1014.4
20260901042808 84 177 0.0 0.0 0.00 0.00 0.00 1 1014.4
20260901041735 84 177 0.0 1.0 0.00 0.00 0.00 1 1014.4
20260901040706 84 178 0.0 0.0 0.00 0.00 0.00 1 1014.3
20260901035631 84 178 0.0 0.0 0.00 0.00 0.00 1 1014.4
20260901034641 84 0 0.0 1.0 0.00 0.00 0.00 1 1014.0
20260901033606 84 0 0.0 0.0 0.00 0.00 0.00 1 1014.0
20260901032621 84 0 0.0 0.0 0.00 0.00 0.00 1 1013.9
20260901030533 85 178 0.0 0.0 0.00 0.00 0.00 3 1013.5
20260901025555 85 178 0.0 0.0 0.00 0.00 0.00 6 1013.4
20260901024618 85 178 0.0 0.0 0.00 0.00 0.00 8 1013.4
20260901023545 85 178 0.0 0.0 0.00 0.00 0.00 11 1013.2
20260901022524 85 178 0.0 0.0 0.00 0.00 0.00 10 1013.2
20260901021458 86 178 0.0 0.0 0.00 0.00 0.00 11 1013.0
20260901020436 86 178 0.0 0.0 0.00 0.00 0.00 13 1013.0
20260901015405 87 178 0.0 0.0 0.00 0.00 0.00 11 1012.8
20260901014338 87 178 0.0 0.0 0.00 0.00 0.00 16 1012.7
20260901012158 88 178 0.0 0.0 0.00 0.00 0.00 20 1012.6
20260901011217 88 178 0.0 0.0 0.00 0.00 0.00 24 1012.7
20260901010205 88 178 0.0 0.0 0.00 0.00 0.00 26 1012.6
20260901005145 89 178 0.0 0.0 0.00 0.00 0.00 28 1012.6
20260901004153 89 178 0.0 0.0 0.00 0.00 0.00 33 1012.6
20260901003203 89 178 0.0 0.0 0.00 0.00 0.00 39 1012.7
20260901002135 90 178 0.0 0.0 0.00 0.00 0.00 41 1012.7
20260901001131 90 178 0.0 1.0 0.00 0.00 0.00 43 1012.7
20260901000155 90 178 0.0 1.0 0.00 0.00 0.00 46 1012.8
20260831235200 90 183 0.0 0.0 0.00 0.00 0.00 46 1012.8
20260831234134 90 183 0.0 0.0 0.00 0.00 0.00 48 1012.8
20260831233153 91 183 0.0 1.0 0.00 0.00 0.00 49 1012.9
20260831232136 91 160 0.0 1.0 0.00 0.00 0.00 51 1013.1
20260831231106 92 161 0.0 2.0 0.00 0.00 0.00 54 1013.0
20260831230054 93 331 0.0 8.0 0.00 0.00 0.00 54 1012.8
20260831225024 95 38 1.0 7.0 0.00 0.00 0.00 53 1012.8
20260831224010 95 78 1.0 7.0 0.00 0.00 0.00 53 1012.6
20260831223020 95 140 1.0 8.0 0.00 0.00 0.00 54 1012.7
20260831220926 94 145 1.0 9.0 0.00 0.00 0.00 54 1012.6
20260831215930 94 106 2.0 9.0 0.00 0.00 0.00 54 1012.6
20260831214906 95 117 1.0 10.0 0.00 0.00 0.00 54 1012.7
20260831213841 95 114 1.0 10.0 0.00 0.00 0.00 54 1012.8
20260831211758 97 57 1.0 7.0 0.00 0.00 0.00 49 1012.8
20260831210759 98 53 0.0 6.0 0.00 0.00 0.00 46 1012.8
20260831205807 98 183 1.0 6.0 0.00 0.00 0.00 46 1012.8
20260831204737 98 128 0.0 5.0 0.00 0.00 0.00 46 1013.0
20260831203745 98 297 0.0 4.0 0.00 0.00 0.00 46 1013.1
20260831202734 98 126 0.0 4.0 0.00 0.00 0.00 46 1013.3
20260831201743 98 126 0.0 6.0 0.00 0.00 0.00 46 1013.5
20260831200713 98 128 0.0 6.0 0.00 0.00 0.00 46 1013.7
20260831195737 98 63 0.0 1.0 0.00 0.00 0.00 46 1013.7
20260831194710 99 63 0.0 3.0 0.00 0.00 0.00 47 1013.8
20260831193648 99 355 0.0 4.0 0.00 0.00 0.00 46 1014.0
20260831192701 99 146 1.0 4.0 0.00 0.00 0.00 47 1014.2
20260831191707 98 355 0.0 6.0 0.00 0.00 0.00 48 1014.3
20260831190652 97 134 1.0 6.0 0.00 0.00 0.00 48 1014.5
20260831185641 98 112 0.0 3.0 0.00 0.00 0.00 48 1014.6
20260831184704 97 148 0.0 2.0 0.00 0.00 0.00 49 1014.8
20260831183725 97 309 0.0 4.0 0.00 0.00 0.00 50 1014.9
20260831182708 97 260 1.0 6.0 0.00 0.00 0.00 51 1015.0
20260831181712 97 141 1.0 6.0 0.00 0.00 0.00 49 1015.2
20260831180641 97 326 0.0 4.0 0.00 0.00 0.00 49 1015.3
20260831175651 96 355 1.0 4.0 0.00 0.00 0.00 51 1015.4
20260831174631 95 115 0.0 4.0 0.00 0.00 0.00 52 1015.5
20260831171350 94 212 0.0 3.0 0.00 0.00 0.00 54 1015.9
20260831170338 94 96 0.0 3.0 0.00 0.00 0.00 54 1016.0
20260831165336 94 96 0.0 3.0 0.00 0.00 0.00 54 1016.1
20260831164346 94 347 0.0 2.0 0.00 0.00 0.00 54 1016.1
20260831154830 91 25 1.0 3.0 0.00 0.00 0.00 52 1016.4
20260831152704 88 77 0.0 2.0 0.00 0.00 0.00 32 1016.2
20260831150614 85 103 0.0 0.0 0.00 0.00 0.00 1 1016.1
20260831144511 83 103 0.0 3.0 0.00 0.00 0.00 1 1016.1
20260831143521 82 77 0.0 2.0 0.00 0.00 0.00 1 1016.0
20260831142513 81 77 0.0 2.0 0.00 0.00 0.00 1 1016.0
20260831140346 80 0 0.0 0.0 0.00 0.00 0.00 1 1016.0
20260831135404 80 0 0.0 0.0 0.00 0.00 0.00 1 1015.8
20260831134330 79 78 0.0 0.0 0.00 0.00 0.00 1 1015.8
20260831133305 78 78 0.0 0.0 0.00 0.00 0.00 1 1015.8
20260831132234 78 77 0.0 0.0 0.00 0.00 0.00 1 1015.6
20260831131226 77 77 0.0 0.0 0.00 0.00 0.00 1 1015.6
20260831122811 76 77 0.0 0.0 0.00 0.00 0.00 1 1015.2
20260831121814 76 77 0.0 0.0 0.00 0.00 0.00 1 1015.0
20260831115614 77 77 0.0 0.0 0.00 0.00 0.00 1 1014.7
20260831114634 77 77 0.0 0.0 0.00 0.00 0.00 1 1014.6
20260831113620 77 77 0.0 0.0 0.00 0.00 0.00 1 1014.6